Lid_Strength_Index
3 3 3 3 4 3 3 3 3 3 3 3 3 3 3 3 3 4 7 5 4 -0 0 4 6 6 8 9 9 10 13 14 13 12 11 8 9 8 8 9 7 7 5 6 3
4 4 3 3 3 3 3 3 3 3 3 3 3 3 3 3 5 6 3 1 -0 -0 5 6 7 8 9 9 10 11 13 12 11 11 10 9 10 10 9 9 8 7 5 3 3
4 4 4 3 3 3 3 3 3 3 3 3 3 2 3 4 5 6 1 0 -1 0 5 6 7 9 10 11 11 12 13 11 10 10 11 11 10 10 10 10 8 7 6 5 4
4 4 4 4 3 3 4 4 4 3 3 3 3 2 2 4 10 6 0 -0 -1 2 6 6 8 10 11 12 11 13 10 11 10 9 10 10 10 9 10 9 8 6 5 4 4
5 5 4 4 4 3 4 4 4 3 3 3 2 2 4 7 7 4 0 2 5 4 6 7 9 10 11 11 10 12 10 9 9 8 9 9 10 10 9 7 5 4 4 4 4
5 5 5 4 4 3 4 4 4 4 3 3 2 2 6 9 5 5 6 6 6 6 6 7 8 8 10 10 11 10 9 9 9 9 9 10 11 10 8 7 5 5 5 5 5
5 5 5 4 4 4 4 4 4 4 3 3 3 4 7 8 6 7 6 7 7 6 7 6 7 8 9 10 8 9 10 9 9 10 11 10 11 10 9 8 6 6 6 6 6
5 5 5 4 4 4 4 5 5 4 4 3 3 6 8 4 5 6 6 6 6 6 6 7 7 8 9 9 10 11 12 14 12 11 10 11 13 10 10 10 7 7 7 8 8
5 5 5 5 5 5 5 5 5 4 4 4 6 8 10 4 7 7 7 7 7 6 7 5 7 10 10 12 14 13 15 14 13 11 11 11 13 10 10 8 6 8 9 8 8
6 5 5 5 5 5 5 5 4 4 4 5 5 9 8 9 7 7 7 6 8 8 9 9 10 12 13 14 17 15 16 16 16 12 11 13 12 9 7 7 9 9 9 9 9
7 6 5 5 5 5 6 8 9 9 9 10 9 9 9 7 7 7 7 7 8 9 12 11 12 14 14 13 13 13 15 15 15 10 11 12 10 9 9 9 10 10 10 10 10
7 6 6 6 6 5 8 9 10 9 12 8 8 8 7 9 10 8 7 10 9 12 11 13 14 12 11 11 12 13 15 15 13 10 11 12 12 10 10 10 10 10 11 10 10
7 6 6 6 6 7 8 8 5 7 12 8 8 9 9 9 10 10 9 10 10 12 13 14 12 10 11 13 13 14 15 14 13 11 12 14 14 12 10 9 9 10 11 11 11
6 6 6 5 8 8 8 6 5 6 14 11 11 9 9 9 9 8 8 9 10 13 12 12 10 11 12 13 13 16 13 13 12 15 16 14 17 13 11 11 10 11 12 12 12
6 6 5 5 8 8 8 6 4 8 19 11 11 8 8 10 10 9 9 10 13 13 13 14 12 12 13 13 13 14 12 14 13 15 17 16 17 14 11 12 11 11 10 11 11
6 5 5 6 7 8 7 5 8 14 18 12 10 10 10 10 11 11 11 11 12 13 13 13 10 12 12 12 13 12 14 14 15 16 19 17 16 15 14 13 11 12 11 11 11
7 6 6 5 9 7 6 10 15 18 11 13 12 11 12 12 12 12 14 15 17 18 17 14 14 12 12 14 13 14 16 20 20 19 19 15 15 15 12 12 12 12 11 11 10
7 5 5 6 7 7 9 13 19 14 13 12 12 12 13 12 13 13 14 16 15 16 18 18 16 14 12 14 16 16 16 19 21 21 20 16 17 15 12 11 11 10 10 9 9
6 7 7 7 7 7 13 18 17 13 13 12 13 14 14 13 14 14 16 16 16 16 18 18 17 13 12 13 14 15 17 15 17 18 20 19 15 13 12 12 11 11 10 10 9
9 8 9 7 6 9 15 16 13 11 12 12 15 14 15 15 16 15 16 14 15 14 15 16 19 14 12 13 13 15 14 18 18 21 21 19 18 18 15 14 12 11 11 10 8
10 11 8 7 9 13 18 16 12 11 10 12 13 14 14 15 16 16 16 14 14 14 14 15 17 16 15 16 17 16 16 15 16 17 20 21 19 14 14 13 13 12 10 10 9
12 14 7 10 16 15 15 11 10 11 10 11 11 12 13 15 16 15 15 14 13 13 16 15 16 20 18 14 13 14 16 16 19 18 18 18 20 12 13 12 11 11 10 10 9
11 12 10 11 18 17 13 11 10 11 11 11 12 12 13 15 17 15 15 13 12 14 15 15 18 21 18 16 14 15 14 15 15 17 18 21 19 11 12 12 11 11 11 11 10
10 14 14 12 13 14 13 12 12 10 11 11 12 12 14 15 15 15 15 13 12 13 10 13 18 19 21 18 16 17 16 15 16 19 19 18 17 14 13 13 12 12 12 11 11
11 13 13 16 15 13 12 11 13 13 12 11 13 13 15 17 16 16 14 14 13 11 14 15 19 16 16 15 15 16 16 15 16 16 18 17 16 15 14 13 13 13 12 12 12
11 12 12 15 14 12 12 12 13 13 12 13 13 13 14 16 15 16 15 15 15 14 15 15 19 17 17 15 15 17 15 15 15 15 15 15 15 13 12 12 13 12 12 12 12
11 10 11 12 15 15 15 13 12 12 12 11 13 13 14 14 14 14 14 14 13 15 16 16 17 19 20 16 17 20 16 15 15 14 14 16 15 13 14 14 14 13 12 12 11